| time (UTC) | temp F | wind direction | speed MPH | gust MPH | rain 1hr in | rain 24hr in | rain mn in | humidity % | barometer mb |
| 20260506232907 | 33 | 161 | 1.0 | 4.0 | 0.00 | 0.00 | 0.00 | 75 | 968.0 |
| 20260506232407 | 33 | 250 | 1.0 | 5.0 | 0.00 | 0.00 | 0.00 | 76 | 968.0 |
| 20260506231837 | 33 | 235 | 2.0 | 5.0 | 0.00 | 0.00 | 0.00 | 75 | 968.0 |
| 20260506231337 | 33 | 215 | 2.0 | 4.0 | 0.00 | 0.00 | 0.00 | 75 | 968.0 |
| 20260506230837 | 33 | 204 | 2.0 | 6.0 | 0.00 | 0.00 | 0.00 | 75 | 968.0 |
| 20260506230337 | 33 | 206 | 1.0 | 6.0 | 0.00 | 0.00 | 0.00 | 76 | 968.0 |
| 20260506225836 | 33 | 191 | 1.0 | 3.0 | 0.00 | 0.00 | 0.00 | 76 | 968.0 |
| 20260506225336 | 32 | 136 | 1.0 | 3.0 | 0.00 | 0.00 | 0.00 | 76 | 968.0 |
| 20260506224836 | 32 | 329 | 1.0 | 2.0 | 0.00 | 0.00 | 0.00 | 75 | 968.0 |
| 20260506224306 | 33 | 190 | 0.0 | 2.0 | 0.00 | 0.00 | 0.00 | 76 | 967.6 |
| 20260506223736 | 32 | 259 | 0.0 | 2.0 | 0.00 | 0.00 | 0.00 | 74 | 967.6 |
| 20260506223236 | 33 | 276 | 1.0 | 2.0 | 0.00 | 0.00 | 0.00 | 73 | 968.0 |
| 20260506222736 | 33 | 186 | 1.0 | 3.0 | 0.00 | 0.00 | 0.00 | 74 | 967.6 |
| 20260506222236 | 33 | 199 | 2.0 | 6.0 | 0.00 | 0.00 | 0.00 | 74 | 967.6 |
| 20260506221736 | 33 | 293 | 3.0 | 6.0 | 0.00 | 0.00 | 0.00 | 73 | 967.6 |
| 20260506221206 | 33 | 13 | 2.0 | 5.0 | 0.00 | 0.00 | 0.00 | 72 | 967.5 |
| 20260506220706 | 34 | 256 | 2.0 | 4.0 | 0.00 | 0.00 | 0.00 | 73 | 967.5 |
| 20260506220136 | 34 | 278 | 2.0 | 6.0 | 0.00 | 0.00 | 0.00 | 72 | 967.5 |
| 20260506215636 | 34 | 255 | 3.0 | 6.0 | 0.00 | 0.00 | 0.00 | 72 | 967.4 |
| 20260506215136 | 34 | 219 | 3.0 | 6.0 | 0.00 | 0.00 | 0.00 | 72 | 967.4 |
| 20260506214636 | 35 | 229 | 3.0 | 7.0 | 0.00 | 0.00 | 0.00 | 71 | 967.3 |
| 20260506214136 | 35 | 247 | 4.0 | 7.0 | 0.00 | 0.00 | 0.00 | 71 | 967.4 |
| 20260506213636 | 35 | 226 | 3.0 | 7.0 | 0.00 | 0.00 | 0.00 | 70 | 967.3 |
| 20260506213136 | 35 | 241 | 3.0 | 7.0 | 0.00 | 0.00 | 0.00 | 70 | 967.3 |
| 20260506212636 | 35 | 237 | 3.0 | 8.0 | 0.00 | 0.00 | 0.00 | 69 | 967.3 |
| 20260506212106 | 35 | 224 | 4.0 | 8.0 | 0.00 | 0.00 | 0.00 | 68 | 967.3 |
| 20260506211606 | 36 | 289 | 4.0 | 9.0 | 0.00 | 0.00 | 0.00 | 68 | 967.3 |
| 20260506211036 | 36 | 212 | 4.0 | 9.0 | 0.00 | 0.00 | 0.00 | 67 | 967.3 |
| 20260506210536 | 36 | 245 | 4.0 | 12.0 | 0.00 | 0.00 | 0.00 | 66 | 967.1 |
| 20260506210036 | 36 | 238 | 3.0 | 12.0 | 0.00 | 0.00 | 0.00 | 65 | 967.1 |
| 20260506205506 | 37 | 222 | 3.0 | 9.0 | 0.00 | 0.00 | 0.00 | 64 | 967.0 |
| 20260506205006 | 37 | 208 | 3.0 | 9.0 | 0.00 | 0.00 | 0.00 | 64 | 967.0 |
| 20260506204506 | 37 | 182 | 3.0 | 9.0 | 0.00 | 0.00 | 0.00 | 63 | 967.0 |
| 20260506204006 | 37 | 198 | 3.0 | 9.0 | 0.00 | 0.00 | 0.00 | 63 | 967.1 |
| 20260506203506 | 37 | 197 | 4.0 | 10.0 | 0.00 | 0.00 | 0.00 | 62 | 967.0 |
| 20260506203006 | 37 | 235 | 5.0 | 12.0 | 0.00 | 0.00 | 0.00 | 62 | 967.0 |
| 20260506202506 | 37 | 183 | 5.0 | 12.0 | 0.00 | 0.00 | 0.00 | 61 | 967.0 |
| 20260506202006 | 38 | 202 | 5.0 | 11.0 | 0.00 | 0.00 | 0.00 | 58 | 967.0 |
| 20260506201506 | 38 | 156 | 5.0 | 11.0 | 0.00 | 0.00 | 0.00 | 56 | 967.0 |
| 20260506201005 | 38 | 163 | 5.0 | 12.0 | 0.00 | 0.00 | 0.00 | 55 | 967.0 |
| 20260506200435 | 38 | 171 | 5.0 | 12.0 | 0.00 | 0.00 | 0.00 | 54 | 967.0 |
| 20260506195935 | 38 | 187 | 4.0 | 9.0 | 0.00 | 0.00 | 0.00 | 54 | 967.0 |
| 20260506195406 | 39 | 187 | 4.0 | 9.0 | 0.00 | 0.00 | 0.00 | 53 | 967.0 |
| 20260506194905 | 39 | 186 | 4.0 | 9.0 | 0.00 | 0.00 | 0.00 | 53 | 967.0 |
| 20260506194405 | 39 | 172 | 4.0 | 9.0 | 0.00 | 0.00 | 0.00 | 53 | 967.0 |
| 20260506193905 | 39 | 159 | 4.0 | 9.0 | 0.00 | 0.00 | 0.00 | 53 | 967.0 |
| 20260506193405 | 40 | 170 | 4.0 | 7.0 | 0.00 | 0.00 | 0.00 | 51 | 967.0 |
| 20260506192905 | 40 | 184 | 4.0 | 7.0 | 0.00 | 0.00 | 0.00 | 50 | 967.0 |
| 20260506192405 | 40 | 177 | 4.0 | 7.0 | 0.00 | 0.00 | 0.00 | 49 | 967.0 |
| 20260506191835 | 40 | 178 | 4.0 | 7.0 | 0.00 | 0.00 | 0.00 | 48 | 967.0 |
| 20260506191335 | 41 | 183 | 4.0 | 5.0 | 0.00 | 0.00 | 0.00 | 47 | 966.6 |
| 20260506190835 | 41 | 185 | 3.0 | 5.0 | 0.00 | 0.00 | 0.00 | 47 | 966.6 |
| 20260506190335 | 42 | 182 | 3.0 | 5.0 | 0.00 | 0.00 | 0.00 | 46 | 966.6 |
| 20260506185805 | 42 | 187 | 2.0 | 4.0 | 0.00 | 0.00 | 0.00 | 44 | 966.6 |
| 20260506185307 | 42 | 185 | 2.0 | 3.0 | 0.00 | 0.00 | 0.00 | 44 | 967.0 |
| 20260506184805 | 43 | 195 | 2.0 | 3.0 | 0.00 | 0.00 | 0.00 | 44 | 966.5 |
| 20260506184305 | 43 | 191 | 1.0 | 2.0 | 0.00 | 0.00 | 0.00 | 43 | 966.5 |
| 20260506183805 | 43 | 210 | 1.0 | 2.0 | 0.00 | 0.00 | 0.00 | 44 | 966.4 |
| 20260506183305 | 42 | 219 | 1.0 | 2.0 | 0.00 | 0.00 | 0.00 | 43 | 966.5 |
| 20260506182735 | 42 | 259 | 1.0 | 3.0 | 0.00 | 0.00 | 0.00 | 43 | 966.4 |
| 20260506182235 | 42 | 60 | 2.0 | 4.0 | 0.00 | 0.00 | 0.00 | 40 | 966.5 |
| 20260506181735 | 43 | 55 | 1.0 | 4.0 | 0.00 | 0.00 | 0.00 | 40 | 966.5 |
| 20260506181235 | 44 | 127 | 0.0 | 4.0 | 0.00 | 0.00 | 0.00 | 41 | 966.5 |
| 20260506180705 | 44 | 138 | 1.0 | 4.0 | 0.00 | 0.00 | 0.00 | 43 | 966.5 |
| 20260506180205 | 43 | 171 | 1.0 | 4.0 | 0.00 | 0.00 | 0.00 | 42 | 966.5 |
| 20260506175705 | 43 | 104 | 1.0 | 6.0 | 0.00 | 0.00 | 0.00 | 42 | 966.5 |
| 20260506175135 | 43 | 63 | 1.0 | 6.0 | 0.00 | 0.00 | 0.00 | 40 | 966.5 |
| 20260506174635 | 44 | 134 | 1.0 | 4.0 | 0.00 | 0.00 | 0.00 | 40 | 966.3 |
| 20260506174135 | 44 | 105 | 1.0 | 4.0 | 0.00 | 0.00 | 0.00 | 40 | 966.2 |
| 20260506173605 | 45 | 67 | 1.0 | 4.0 | 0.00 | 0.00 | 0.00 | 38 | 966.2 |
| 20260506173105 | 45 | 89 | 1.0 | 5.0 | 0.00 | 0.00 | 0.00 | 40 | 966.1 |
| 20260506172605 | 45 | 89 | 2.0 | 5.0 | 0.00 | 0.00 | 0.00 | 40 | 966.2 |
| 20260506172105 | 46 | 103 | 1.0 | 4.0 | 0.00 | 0.00 | 0.00 | 40 | 966.2 |
| 20260506171535 | 46 | 100 | 2.0 | 6.0 | 0.00 | 0.00 | 0.00 | 39 | 966.2 |
| 20260506171005 | 46 | 110 | 2.0 | 6.0 | 0.00 | 0.00 | 0.00 | 39 | 966.2 |
| 20260506170505 | 46 | 98 | 2.0 | 8.0 | 0.00 | 0.00 | 0.00 | 40 | 966.2 |
| 20260506170005 | 46 | 159 | 3.0 | 9.0 | 0.00 | 0.00 | 0.00 | 40 | 966.2 |
| 20260506165505 | 46 | 312 | 2.0 | 9.0 | 0.00 | 0.00 | 0.00 | 40 | 966.2 |
| 20260506165005 | 46 | 123 | 3.0 | 7.0 | 0.00 | 0.00 | 0.00 | 40 | 966.2 |
| 20260506164505 | 46 | 192 | 3.0 | 10.0 | 0.00 | 0.00 | 0.00 | 40 | 966.3 |
| 20260506164005 | 46 | 210 | 3.0 | 11.0 | 0.00 | 0.00 | 0.00 | 42 | 966.3 |
| 20260506163505 | 46 | 309 | 3.0 | 11.0 | 0.00 | 0.00 | 0.00 | 40 | 966.3 |
| 20260506163005 | 46 | 205 | 2.0 | 8.0 | 0.00 | 0.00 | 0.00 | 42 | 966.3 |
| 20260506162504 | 46 | 203 | 2.0 | 6.0 | 0.00 | 0.00 | 0.00 | 41 | 966.3 |
| 20260506162004 | 46 | 203 | 2.0 | 6.0 | 0.00 | 0.00 | 0.00 | 41 | 966.3 |
| 20260506161504 | 46 | 70 | 2.0 | 6.0 | 0.00 | 0.00 | 0.00 | 39 | 966.3 |
| 20260506161004 | 45 | 130 | 1.0 | 5.0 | 0.00 | 0.00 | 0.00 | 41 | 966.3 |
| 20260506160504 | 45 | 337 | 1.0 | 4.0 | 0.00 | 0.00 | 0.00 | 43 | 966.3 |
| 20260506160004 | 45 | 63 | 1.0 | 4.0 | 0.00 | 0.00 | 0.00 | 42 | 966.2 |
| 20260506155504 | 45 | 108 | 1.0 | 4.0 | 0.00 | 0.00 | 0.00 | 44 | 966.2 |
| 20260506155004 | 45 | 139 | 2.0 | 5.0 | 0.00 | 0.00 | 0.00 | 40 | 966.2 |
| 20260506154434 | 45 | 147 | 2.0 | 5.0 | 0.00 | 0.00 | 0.00 | 42 | 966.1 |
| 20260506153934 | 45 | 2 | 2.0 | 5.0 | 0.00 | 0.00 | 0.00 | 42 | 966.2 |
| 20260506153434 | 45 | 0 | 2.0 | 7.0 | 0.00 | 0.00 | 0.00 | 43 | 966.2 |
| 20260506152934 | 45 | 187 | 2.0 | 7.0 | 0.00 | 0.00 | 0.00 | 41 | 966.1 |
| 20260506152434 | 45 | 168 | 3.0 | 8.0 | 0.00 | 0.00 | 0.00 | 42 | 966.2 |
| 20260506151934 | 44 | 233 | 3.0 | 8.0 | 0.00 | 0.00 | 0.00 | 43 | 966.2 |
| 20260506151404 | 44 | 199 | 3.0 | 9.0 | 0.00 | 0.00 | 0.00 | 42 | 966.2 |
| 20260506150904 | 44 | 146 | 3.0 | 11.0 | 0.00 | 0.00 | 0.00 | 43 | 966.1 |
| 20260506150334 | 44 | 216 | 3.0 | 11.0 | 0.00 | 0.00 | 0.00 | 41 | 966.1 |
| 20260506145834 | 45 | 120 | 4.0 | 13.0 | 0.00 | 0.00 | 0.00 | 42 | 966.3 |
| 20260506145306 | 44 | 186 | 5.0 | 13.0 | 0.00 | 0.00 | 0.00 | 42 | 966.3 |
| 20260506144734 | 45 | 51 | 4.0 | 13.0 | 0.00 | 0.00 | 0.00 | 42 | 966.2 |
| 20260506144234 | 46 | 166 | 3.0 | 12.0 | 0.00 | 0.00 | 0.00 | 37 | 966.4 |
| 20260506143734 | 48 | 120 | 2.0 | 9.0 | 0.00 | 0.00 | 0.00 | 37 | 966.3 |
| 20260506143234 | 46 | 203 | 2.0 | 9.0 | 0.00 | 0.00 | 0.00 | 39 | 966.3 |
| 20260506142704 | 46 | 64 | 2.0 | 11.0 | 0.00 | 0.00 | 0.00 | 40 | 966.4 |
| 20260506142204 | 46 | 30 | 3.0 | 12.0 | 0.00 | 0.00 | 0.00 | 39 | 966.4 |
| 20260506141704 | 46 | 77 | 4.0 | 17.0 | 0.00 | 0.00 | 0.00 | 40 | 966.3 |
| 20260506141204 | 46 | 95 | 4.0 | 17.0 | 0.00 | 0.00 | 0.00 | 39 | 966.5 |
| 20260506140704 | 46 | 109 | 4.0 | 17.0 | 0.00 | 0.00 | 0.00 | 39 | 966.2 |
| 20260506140204 | 46 | 95 | 3.0 | 12.0 | 0.00 | 0.00 | 0.00 | 39 | 966.3 |
| 20260506135704 | 47 | 48 | 3.0 | 9.0 | 0.00 | 0.00 | 0.00 | 40 | 966.3 |
| 20260506135204 | 47 | 44 | 3.0 | 7.0 | 0.00 | 0.00 | 0.00 | 41 | 966.2 |
| 20260506134703 | 48 | 78 | 2.0 | 9.0 | 0.00 | 0.00 | 0.00 | 39 | 966.3 |
| 20260506134203 | 48 | 97 | 3.0 | 9.0 | 0.00 | 0.00 | 0.00 | 35 | 966.2 |
| 20260506133703 | 50 | 148 | 3.0 | 10.0 | 0.00 | 0.00 | 0.00 | 33 | 966.2 |
| 20260506133203 | 52 | 83 | 3.0 | 10.0 | 0.00 | 0.00 | 0.00 | 30 | 966.3 |
| 20260506132703 | 53 | 199 | 3.0 | 11.0 | 0.00 | 0.00 | 0.00 | 34 | 966.3 |
| 20260506132203 | 54 | 215 | 3.0 | 11.0 | 0.00 | 0.00 | 0.00 | 35 | 966.3 |
| 20260506131703 | 53 | 340 | 3.0 | 10.0 | 0.00 | 0.00 | 0.00 | 32 | 966.2 |
| 20260506131203 | 53 | 52 | 3.0 | 10.0 | 0.00 | 0.00 | 0.00 | 31 | 966.2 |
| 20260506130703 | 53 | 130 | 3.0 | 9.0 | 0.00 | 0.00 | 0.00 | 33 | 966.3 |
| 20260506130203 | 53 | 192 | 3.0 | 9.0 | 0.00 | 0.00 | 0.00 | 35 | 966.4 |
| 20260506125633 | 53 | 148 | 3.0 | 8.0 | 0.00 | 0.00 | 0.00 | 35 | 966.4 |
| 20260506125133 | 53 | 132 | 3.0 | 10.0 | 0.00 | 0.00 | 0.00 | 33 | 966.4 |
| 20260506124633 | 52 | 154 | 4.0 | 10.0 | 0.00 | 0.00 | 0.00 | 35 | 966.3 |
| 20260506124133 | 53 | 149 | 3.0 | 10.0 | 0.00 | 0.00 | 0.00 | 35 | 966.4 |
| 20260506123633 | 53 | 127 | 3.0 | 10.0 | 0.00 | 0.00 | 0.00 | 34 | 966.4 |
| 20260506123133 | 52 | 174 | 3.0 | 13.0 | 0.00 | 0.00 | 0.00 | 34 | 966.4 |
| 20260506122633 | 51 | 25 | 4.0 | 15.0 | 0.00 | 0.00 | 0.00 | 33 | 966.4 |
| 20260506122133 | 51 | 120 | 4.0 | 15.0 | 0.00 | 0.00 | 0.00 | 31 | 966.3 |
| 20260506121633 | 51 | 22 | 3.0 | 16.0 | 0.00 | 0.00 | 0.00 | 34 | 966.4 |
| 20260506121133 | 52 | 10 | 3.0 | 17.0 | 0.00 | 0.00 | 0.00 | 36 | 966.4 |
| 20260506120603 | 51 | 42 | 3.0 | 17.0 | 0.00 | 0.00 | 0.00 | 33 | 966.5 |
| 20260506120033 | 50 | 352 | 4.0 | 17.0 | 0.00 | 0.00 | 0.00 | 34 | 966.4 |
| 20260506115533 | 51 | 117 | 4.0 | 12.0 | 0.00 | 0.00 | 0.00 | 38 | 966.5 |
| 20260506115033 | 50 | 184 | 4.0 | 12.0 | 0.00 | 0.00 | 0.00 | 37 | 966.5 |
| 20260506114533 | 49 | 134 | 3.0 | 12.0 | 0.00 | 0.00 | 0.00 | 34 | 966.5 |
| 20260506114033 | 51 | 280 | 3.0 | 12.0 | 0.00 | 0.00 | 0.00 | 36 | 966.5 |
| 20260506113533 | 51 | 52 | 3.0 | 10.0 | 0.00 | 0.00 | 0.00 | 37 | 966.5 |
| 20260506113033 | 51 | 16 | 4.0 | 14.0 | 0.00 | 0.00 | 0.00 | 36 | 966.5 |
| 20260506112533 | 51 | 60 | 3.0 | 13.0 | 0.00 | 0.00 | 0.00 | 32 | 966.4 |
| 20260506112033 | 51 | 127 | 3.0 | 11.0 | 0.00 | 0.00 | 0.00 | 35 | 966.5 |
| 20260506111533 | 51 | 103 | 3.0 | 11.0 | 0.00 | 0.00 | 0.00 | 37 | 966.4 |
| 20260506111003 | 50 | 105 | 3.0 | 12.0 | 0.00 | 0.00 | 0.00 | 38 | 966.5 |
| 20260506110503 | 48 | 81 | 4.0 | 14.0 | 0.00 | 0.00 | 0.00 | 43 | 966.4 |
| 20260506110003 | 47 | 118 | 5.0 | 17.0 | 0.00 | 0.00 | 0.00 | 38 | 966.4 |
| 20260506105432 | 47 | 16 | 5.0 | 17.0 | 0.00 | 0.00 | 0.00 | 39 | 966.5 |
| 20260506104932 | 47 | 145 | 4.0 | 15.0 | 0.00 | 0.00 | 0.00 | 37 | 966.3 |
| 20260506104433 | 50 | 201 | 3.0 | 15.0 | 0.00 | 0.00 | 0.00 | 45 | 966.5 |
| 20260506103902 | 49 | 345 | 3.0 | 15.0 | 0.00 | 0.00 | 0.00 | 42 | 966.5 |
| 20260506103332 | 49 | 66 | 4.0 | 15.0 | 0.00 | 0.00 | 0.00 | 39 | 966.5 |
| 20260506102832 | 47 | 73 | 5.0 | 16.0 | 0.00 | 0.00 | 0.00 | 43 | 966.5 |
| 20260506102332 | 47 | 77 | 5.0 | 16.0 | 0.00 | 0.00 | 0.00 | 43 | 966.5 |
| 20260506101832 | 46 | 128 | 5.0 | 15.0 | 0.00 | 0.00 | 0.00 | 41 | 966.4 |
| 20260506101332 | 47 | 140 | 4.0 | 14.0 | 0.00 | 0.00 | 0.00 | 40 | 966.4 |
| 20260506100832 | 49 | 208 | 3.0 | 12.0 | 0.00 | 0.00 | 0.00 | 42 | 966.5 |
| 20260506100332 | 49 | 77 | 4.0 | 12.0 | 0.00 | 0.00 | 0.00 | 43 | 966.5 |
| 20260506095832 | 48 | 243 | 4.0 | 12.0 | 0.00 | 0.00 | 0.00 | 45 | 966.5 |
| 20260506095332 | 48 | 78 | 3.0 | 12.0 | 0.00 | 0.00 | 0.00 | 43 | 966.5 |
| 20260506094832 | 49 | 113 | 3.0 | 13.0 | 0.00 | 0.00 | 0.00 | 44 | 966.6 |
| 20260506094332 | 49 | 139 | 4.0 | 13.0 | 0.00 | 0.00 | 0.00 | 47 | 966.4 |
| 20260506093802 | 47 | 109 | 4.0 | 18.0 | 0.00 | 0.00 | 0.00 | 45 | 966.4 |
| 20260506093302 | 48 | 57 | 4.0 | 18.0 | 0.00 | 0.00 | 0.00 | 45 | 966.4 |
| 20260506092802 | 48 | 126 | 4.0 | 18.0 | 0.00 | 0.00 | 0.00 | 45 | 966.4 |
| 20260506092305 | 48 | 325 | 3.0 | 10.0 | 0.00 | 0.00 | 0.00 | 44 | 966.5 |
| 20260506091802 | 47 | 50 | 3.0 | 15.0 | 0.00 | 0.00 | 0.00 | 45 | 966.5 |
| 20260506091302 | 47 | 34 | 4.0 | 15.0 | 0.00 | 0.00 | 0.00 | 46 | 966.5 |
| 20260506090802 | 46 | 358 | 4.0 | 13.0 | 0.00 | 0.00 | 0.00 | 47 | 966.5 |
| 20260506090232 | 46 | 99 | 4.0 | 11.0 | 0.00 | 0.00 | 0.00 | 47 | 966.5 |
| 20260506085732 | 46 | 97 | 4.0 | 11.0 | 0.00 | 0.00 | 0.00 | 47 | 966.4 |
| 20260506085232 | 47 | 358 | 4.0 | 15.0 | 0.00 | 0.00 | 0.00 | 48 | 966.5 |
| 20260506084732 | 46 | 93 | 4.0 | 15.0 | 0.00 | 0.00 | 0.00 | 48 | 966.5 |
| 20260506084232 | 45 | 76 | 5.0 | 18.0 | 0.00 | 0.00 | 0.00 | 49 | 966.5 |
| 20260506083702 | 45 | 112 | 4.0 | 18.0 | 0.00 | 0.00 | 0.00 | 48 | 966.4 |
| 20260506083202 | 46 | 101 | 4.0 | 18.0 | 0.00 | 0.00 | 0.00 | 47 | 966.4 |
| 20260506082702 | 46 | 109 | 4.0 | 16.0 | 0.00 | 0.00 | 0.00 | 47 | 966.6 |
| 20260506082202 | 45 | 20 | 6.0 | 20.0 | 0.00 | 0.00 | 0.00 | 50 | 966.4 |
| 20260506081702 | 44 | 112 | 5.0 | 20.0 | 0.00 | 0.00 | 0.00 | 54 | 966.5 |
| 20260506081202 | 42 | 184 | 5.0 | 15.0 | 0.00 | 0.00 | 0.00 | 50 | 966.4 |
| 20260506080702 | 44 | 41 | 5.0 | 15.0 | 0.00 | 0.00 | 0.00 | 52 | 966.5 |
| 20260506080202 | 44 | 65 | 5.0 | 15.0 | 0.00 | 0.00 | 0.00 | 49 | 966.3 |
| 20260506073201 | 42 | 98 | 5.0 | 15.0 | 0.00 | 0.00 | 0.00 | 53 | 966.4 |
| 20260506072701 | 43 | 111 | 5.0 | 13.0 | 0.00 | 0.00 | 0.00 | 56 | 966.2 |
| 20260506072201 | 42 | 79 | 5.0 | 16.0 | 0.00 | 0.00 | 0.00 | 57 | 966.2 |
| 20260506071701 | 42 | 104 | 5.0 | 16.0 | 0.00 | 0.00 | 0.00 | 56 | 966.2 |
| 20260506071201 | 42 | 344 | 4.0 | 14.0 | 0.00 | 0.00 | 0.00 | 57 | 966.1 |
| 20260506070701 | 41 | 73 | 5.0 | 17.0 | 0.00 | 0.00 | 0.00 | 55 | 966.0 |
| 20260506070201 | 43 | 145 | 5.0 | 17.0 | 0.00 | 0.00 | 0.00 | 55 | 966.0 |
| 20260506062101 | 41 | 43 | 6.0 | 17.0 | 0.00 | 0.00 | 0.00 | 62 | 966.0 |
| 20260506061531 | 38 | 179 | 6.0 | 17.0 | 0.00 | 0.00 | 0.00 | 62 | 965.6 |
| 20260506061001 | 40 | 123 | 5.0 | 19.0 | 0.00 | 0.00 | 0.00 | 60 | 966.0 |
| 20260506060431 | 40 | 0 | 5.0 | 19.0 | 0.00 | 0.00 | 0.00 | 60 | 966.0 |
| 20260506051301 | 38 | 113 | 5.0 | 16.0 | 0.00 | 0.00 | 0.00 | 62 | 965.4 |
| 20260506050801 | 39 | 107 | 5.0 | 19.0 | 0.00 | 0.00 | 0.00 | 63 | 965.3 |
| 20260506050301 | 38 | 120 | 6.0 | 19.0 | 0.00 | 0.00 | 0.00 | 65 | 965.3 |
| 20260506044731 | 37 | 166 | 5.0 | 17.0 | 0.00 | 0.00 | 0.00 | 66 | 965.2 |
| 20260506044231 | 37 | 85 | 5.0 | 17.0 | 0.00 | 0.00 | 0.00 | 67 | 965.4 |
| 20260506043731 | 36 | 122 | 5.0 | 17.0 | 0.00 | 0.00 | 0.00 | 67 | 965.2 |
| 20260506043231 | 36 | 96 | 5.0 | 15.0 | 0.00 | 0.00 | 0.00 | 68 | 965.2 |
| 20260506042701 | 35 | 131 | 5.0 | 18.0 | 0.00 | 0.00 | 0.00 | 70 | 965.2 |
| 20260506042200 | 32 | 277 | 5.0 | 18.0 | 0.00 | 0.00 | 0.00 | 74 | 965.2 |
| 20260506041700 | 33 | 124 | 5.0 | 17.0 | 0.00 | 0.00 | 0.00 | 71 | 965.0 |
| 20260506041200 | 36 | 63 | 5.0 | 21.0 | 0.00 | 0.00 | 0.00 | 67 | 965.0 |
| 20260506040700 | 35 | 105 | 4.0 | 21.0 | 0.00 | 0.00 | 0.00 | 68 | 965.0 |
| 20260506040130 | 35 | 3 | 4.0 | 21.0 | 0.00 | 0.00 | 0.00 | 68 | 965.0 |
| 20260506035630 | 35 | 11 | 4.0 | 17.0 | 0.00 | 0.00 | 0.00 | 71 | 965.0 |
| 20260506035100 | 34 | 93 | 5.0 | 17.0 | 0.00 | 0.00 | 0.00 | 72 | 965.0 |
| 20260506034600 | 33 | 88 | 4.0 | 17.0 | 0.00 | 0.00 | 0.00 | 74 | 965.0 |
| 20260506034030 | 33 | 73 | 4.0 | 12.0 | 0.00 | 0.00 | 0.00 | 75 | 965.0 |
| 20260506033530 | 31 | 353 | 4.0 | 12.0 | 0.00 | 0.00 | 0.00 | 80 | 964.6 |
| 20260506033000 | 31 | 64 | 4.0 | 13.0 | 0.00 | 0.00 | 0.00 | 80 | 965.0 |
| 20260506032430 | 31 | 175 | 4.0 | 13.0 | 0.00 | 0.00 | 0.00 | 81 | 965.0 |
| 20260506031930 | 31 | 154 | 5.0 | 13.0 | 0.00 | 0.00 | 0.00 | 81 | 965.0 |
| 20260506031430 | 31 | 203 | 5.0 | 16.0 | 0.00 | 0.00 | 0.00 | 81 | 965.0 |
| 20260506030930 | 31 | 112 | 5.0 | 16.0 | 0.00 | 0.00 | 0.00 | 81 | 964.6 |
| 20260506030430 | 31 | 113 | 5.0 | 15.0 | 0.00 | 0.00 | 0.00 | 82 | 964.6 |
| 20260506025930 | 31 | 138 | 5.0 | 16.0 | 0.00 | 0.00 | 0.00 | 81 | 964.6 |
| 20260506025400 | 31 | 146 | 5.0 | 16.0 | 0.00 | 0.00 | 0.00 | 81 | 964.6 |
| 20260506024900 | 31 | 115 | 5.0 | 16.0 | 0.00 | 0.00 | 0.00 | 81 | 964.6 |
| 20260506024400 | 31 | 67 | 5.0 | 16.0 | 0.00 | 0.00 | 0.00 | 82 | 964.6 |
| 20260506023900 | 31 | 41 | 5.0 | 17.0 | 0.00 | 0.00 | 0.00 | 82 | 964.6 |
| 20260506023400 | 31 | 36 | 5.0 | 17.0 | 0.00 | 0.00 | 0.00 | 82 | 964.5 |
| 20260506022900 | 31 | 103 | 5.0 | 15.0 | 0.00 | 0.00 | 0.00 | 81 | 964.6 |
| 20260506022400 | 31 | 96 | 4.0 | 15.0 | 0.00 | 0.00 | 0.00 | 81 | 965.0 |
| 20260506021900 | 31 | 339 | 4.0 | 15.0 | 0.00 | 0.00 | 0.00 | 80 | 964.6 |
| 20260506021400 | 31 | 117 | 4.0 | 13.0 | 0.00 | 0.00 | 0.00 | 81 | 964.6 |
| 20260506020830 | 31 | 7 | 4.0 | 13.0 | 0.00 | 0.00 | 0.00 | 81 | 964.5 |
| 20260506020330 | 31 | 114 | 4.0 | 15.0 | 0.00 | 0.00 | 0.00 | 81 | 964.5 |
| 20260506015800 | 31 | 92 | 4.0 | 15.0 | 0.00 | 0.00 | 0.00 | 81 | 964.4 |
| 20260506015300 | 31 | 28 | 4.0 | 15.0 | 0.00 | 0.00 | 0.00 | 81 | 965.0 |
| 20260506014730 | 31 | 56 | 4.0 | 12.0 | 0.00 | 0.00 | 0.00 | 82 | 964.5 |
| 20260506014230 | 31 | 118 | 3.0 | 11.0 | 0.00 | 0.00 | 0.00 | 82 | 964.5 |
| 20260506013730 | 31 | 14 | 3.0 | 11.0 | 0.00 | 0.00 | 0.00 | 83 | 964.4 |
| 20260506013230 | 31 | 78 | 3.0 | 10.0 | 0.00 | 0.00 | 0.00 | 83 | 964.4 |
| 20260506012700 | 31 | 39 | 3.0 | 10.0 | 0.00 | 0.00 | 0.00 | 83 | 964.4 |
| 20260506012200 | 31 | 70 | 3.0 | 11.0 | 0.00 | 0.00 | 0.00 | 83 | 964.3 |
| 20260506011700 | 30 | 124 | 3.0 | 16.0 | 0.00 | 0.00 | 0.00 | 84 | 964.2 |
| 20260506011200 | 30 | 62 | 3.0 | 16.0 | 0.00 | 0.00 | 0.00 | 84 | 964.2 |
| 20260506010700 | 30 | 104 | 3.0 | 16.0 | 0.00 | 0.00 | 0.00 | 83 | 964.2 |
| 20260506010130 | 30 | 128 | 3.0 | 12.0 | 0.00 | 0.00 | 0.00 | 83 | 964.1 |
| 20260506005630 | 30 | 114 | 3.0 | 12.0 | 0.00 | 0.00 | 0.00 | 82 | 964.2 |
| 20260506005100 | 29 | 83 | 3.0 | 9.0 | 0.00 | 0.00 | 0.00 | 83 | 964.1 |
| 20260506004600 | 29 | 66 | 2.0 | 9.0 | 0.00 | 0.00 | 0.00 | 82 | 964.1 |
| 20260506004100 | 30 | 349 | 3.0 | 10.0 | 0.00 | 0.00 | 0.00 | 82 | 964.2 |
| 20260506003600 | 30 | 356 | 3.0 | 10.0 | 0.00 | 0.00 | 0.00 | 83 | 964.0 |
| 20260506003100 | 30 | 85 | 4.0 | 11.0 | 0.00 | 0.00 | 0.00 | 82 | 964.2 |
| 20260506002530 | 30 | 68 | 4.0 | 13.0 | 0.00 | 0.00 | 0.00 | 82 | 964.0 |
| 20260506002000 | 30 | 247 | 3.0 | 13.0 | 0.00 | 0.00 | 0.00 | 82 | 964.0 |
| 20260506001429 | 30 | 70 | 3.0 | 13.0 | 0.00 | 0.00 | 0.00 | 83 | 964.0 |
| 20260506000929 | 30 | 118 | 4.0 | 16.0 | 0.00 | 0.00 | 0.00 | 84 | 964.0 |
| 20260506000401 | 30 | 122 | 3.0 | 16.0 | 0.00 | 0.00 | 0.00 | 84 | 964.0 |
| 20260505235859 | 29 | 26 | 2.0 | 9.0 | 0.00 | 0.00 | 0.00 | 84 | 964.0 |
| 20260505235359 | 29 | 353 | 3.0 | 9.0 | 0.00 | 0.00 | 0.00 | 83 | 964.1 |
| 20260505234859 | 29 | 94 | 3.0 | 7.0 | 0.00 | 0.00 | 0.00 | 83 | 964.0 |
| 20260505234329 | 29 | 102 | 2.0 | 9.0 | 0.00 | 0.00 | 0.00 | 83 | 964.0 |
| 20260505233829 | 29 | 121 | 2.0 | 9.0 | 0.00 | 0.00 | 0.00 | 83 | 964.0 |
| 20260505233329 | 29 | 61 | 3.0 | 11.0 | 0.00 | 0.00 | 0.00 | 83 | 964.0 |